This demonstration page uses our WeatherBlox Daily Observations layout. Learn more.

Left ArrowRight Arrow

Hourly Observations for September 30, 2022

Temp ( °F °C ) Dew Point ( °F °C ) Humidity (%) Winds ( mph kmh ) Pressure ( in mb ) Visibility ( mi km ) Precip ( " mm )
12:54 am 00:54 Clear 59 15 39 3.9 47 47 SSE 13 20 30.13 1020 10 16 0.00 0.00
1:54 am 01:54 Clear 58 14.4 39 3.9 49 49 SSE 8 13 30.13 1020 10 16 0.00 0.00
2:54 am 02:54 Clear 57 13.9 40 4.4 53 53 SSE 8 13 30.13 1020 10 16 0.00 0.00
3:54 am 03:54 Clear 57 13.9 40 4.4 53 53 SSE 10 17 30.12 1020 10 16 0.00 0.00
4:54 am 04:54 Clear 57 13.9 40 4.4 53 53 SSE 9 15 30.11 1020 10 16 0.00 0.00
5:54 am 05:54 Clear 57 13.9 41 5 55 55 SSE 10 17 30.12 1020 10 16 0.00 0.00
6:54 am 06:54 Mostly Cloudy 55 12.8 44 6.7 66 66 SSE 8 13 30.12 1020 10 16 0.01 0.25
7:54 am 07:54 Sunny 56 13.3 42 5.6 60 60 SSE 14 22 30.11 1020 10 16 0.00 0.00
8:54 am 08:54 Sunny 59 15 43 6.1 55 55 S 12 19 30.10 1019 10 16 0.00 0.00
9:54 am 09:54 Sunny 64 17.8 44 6.7 48 48 SSE 13 20 30.09 1019 10 16 0.00 0.00
10:54 am 10:54 Sunny 71 21.7 45 7.2 39 39 SE 14 22 30.09 1019 10 16 0.00 0.00
11:54 am 11:54 Sunny 74 23.3 45 7.2 36 36 SE 15 24 30.07 1018 10 16 0.00 0.00
12:54 pm 12:54 Sunny 79 26.1 46 7.8 31 31 SSE 12 19 30.05 1018 10 16 0.00 0.00
1:54 pm 13:54 Sunny 82 27.8 46 7.8 28 28 SSE 22 35 30.02 1017 10 16 0.00 0.00
2:54 pm 14:54 Sunny 83 28.3 47 8.3 28 28 SSE 21 33 30.00 1016 10 16 0.00 0.00
3:54 pm 15:54 Sunny 83 28.3 47 8.3 28 28 SE 21 33 29.98 1015 10 16 0.00 0.00
4:54 pm 16:54 Sunny 82 27.8 48 8.9 31 31 SE 18 30 29.97 1015 10 16 0.00 0.00
5:54 pm 17:54 Sunny 79 26.1 48 8.9 34 34 SE 15 24 29.98 1015 10 16 0.00 0.00
6:54 pm 18:54 Sunny 75 23.9 47 8.3 37 37 SSE 14 22 29.98 1015 10 16 0.00 0.00
7:54 pm 19:54 Clear 72 22.2 46 7.8 40 40 SE 14 22 30.00 1016 10 16 0.00 0.00
8:54 pm 20:54 Clear 70 21.1 46 7.8 42 42 SSE 14 22 30.01 1016 10 16 0.00 0.00
9:54 pm 21:54 Clear 68 20 44 6.7 42 42 SE 12 19 30.02 1017 10 16 0.00 0.00
10:54 pm 22:54 Clear 66 18.9 43 6.1 43 43 SE 9 15 30.02 1017 10 16 0.00 0.00
11:54 pm 23:54 Clear 64 17.8 43 6.1 46 46 SSE 10 17 30.03 1017 10 16 0.00 0.00

Powered by AerisWeather